User: anonymous   Login
Location: Wildcat Hills Observatory
(41.6350°N, 103.6812°W)
Time: 03:23:17
(UTC-07:00)
Language:

Cosmos 1634 Rocket - Orbit

View from above orbital plane
View from above orbital plane
View from above satellite
View from above satellite

Ground track
Ground track

The orbit data is extracted from the following two-line orbital elements,

1 15598U 85022B   17053.55250378 +.00000081 +00000-0 +66349-4 0  9997
2 15598 082.9388 192.3044 0023280 071.5223 335.9222 13.76566436604458
Epoch (UTC): 22 February 2017 13:15:36
Eccentricity: 0.0023280
inclination: 82.9388°
perigee height: 959 km
apogee height: 993 km
right ascension of ascending node: 192.3044°
argument of perigee: 71.5223°
revolutions per day: 13.76566436
mean anomaly at epoch: 335.9222°
orbit number at epoch: 60445

The dashed part of the orbit path shows where the satellite is in the earth's shadow,  

DLR